カタログに戻る

THORAD AGENA D DEB

運用中LEO
NORAD 5794·DEBRIS·🇺🇸 United States

打ち上げ Sep 30, 1969 から Vandenberg Space Force Base

Loading…

次のパス (今後24時間)

TLE

最新Source: Space-Track

元期: Sep 13, 2026, 14:30 UTC

1  5794U 69082JW  26256.60438573  .00001779  00000-0  35187-3 0  9998
2  5794  69.9990  16.4951 0023088  46.5059 313.7996 14.63895622405334

AllMySatでTHORAD AGENA D DEBをリアルタイム追跡

Download on the App Store